Time,TemperatureF,DewpointF,PressureIn,WindDirection,WindDirectionDegrees,WindSpeedMPH,WindSpeedGustMPH,Humidity,HourlyPrecipIn,Conditions,Clouds,dailyrainin,SoftwareType,DateUTC
2013-01-01 00:20:00,39.8,27.0,29.88,WSW,253,6.0,7.0,60,0.00,,,0.00,weatherlink.com 1.10,2013-01-01 05:20:00,
2013-01-01 00:35:00,40.0,27.0,29.88,WSW,252,5.0,13.0,61,0.00,,,0.00,weatherlink.com 1.10,2013-01-01 05:35:00,
2013-01-01 00:50:00,40.0,28.0,29.87,West,264,5.0,8.0,62,0.00,,,0.00,weatherlink.com 1.10,2013-01-01 05:50:00,
2013-01-01 01:05:00,40.0,28.0,29.87,WNW,298,3.0,9.0,62,0.00,,,0.00,weatherlink.com 1.10,2013-01-01 06:05:00,
2013-01-01 01:20:00,40.1,28.0,29.87,West,259,1.0,10.0,63,0.00,,,0.00,weatherlink.com 1.10,2013-01-01 06:20:00,
2013-01-01 01:35:00,40.0,28.0,29.88,SW,223,3.0,10.0,63,0.00,,,0.00,weatherlink.com 1.10,2013-01-01 06:35:00,
2013-01-01 01:50:00,39.8,28.0,29.88,SW,221,1.0,8.0,63,0.00,,,0.00,weatherlink.com 1.10,2013-01-01 06:50:00,
2013-01-01 02:05:00,39.7,28.0,29.87,WSW,242,2.0,7.0,64,0.00,,,0.00,weatherlink.com 1.10,2013-01-01 07:05:00,
2013-01-01 02:20:00,39.5,29.0,29.87,WNW,290,1.0,7.0,65,0.00,,,0.00,weatherlink.com 1.10,2013-01-01 07:20:00,
2013-01-01 02:35:00,39.4,29.0,29.87,WSW,250,2.0,9.0,66,0.00,,,0.00,weatherlink.com 1.10,2013-01-01 07:35:00,
2013-01-01 02:50:00,39.3,29.0,29.87,WSW,240,2.0,9.0,66,0.00,,,0.00,weatherlink.com 1.10,2013-01-01 07:50:00,
2013-01-01 03:05:00,39.2,29.0,29.87,SW,228,2.0,7.0,67,0.00,,,0.00,weatherlink.com 1.10,2013-01-01 08:05:00,
2013-01-01 03:20:00,39.6,29.0,29.88,WNW,283,5.0,8.0,67,0.00,,,0.00,weatherlink.com 1.10,2013-01-01 08:20:00,
2013-01-01 03:35:00,39.7,29.0,29.88,West,262,2.0,7.0,66,0.00,,,0.00,weatherlink.com 1.10,2013-01-01 08:35:00,
2013-01-01 03:50:00,39.7,29.0,29.88,WSW,246,4.0,6.0,66,0.00,,,0.00,weatherlink.com 1.10,2013-01-01 08:50:00,
2013-01-01 04:05:00,39.7,29.0,29.88,WSW,257,0.0,8.0,66,0.00,,,0.00,weatherlink.com 1.10,2013-01-01 09:05:00,
2013-01-01 04:20:00,39.9,30.0,29.88,WSW,243,3.0,8.0,67,0.00,,,0.00,weatherlink.com 1.10,2013-01-01 09:20:00,
2013-01-01 04:35:00,39.9,30.0,29.88,WSW,243,2.0,9.0,67,0.00,,,0.00,weatherlink.com 1.10,2013-01-01 09:35:00,
2013-01-01 04:50:00,40.0,30.0,29.88,WSW,251,1.0,12.0,67,0.00,,,0.00,weatherlink.com 1.10,2013-01-01 09:50:00,
2013-01-01 05:05:00,40.0,30.0,29.87,West,277,6.0,11.0,67,0.00,,,0.00,weatherlink.com 1.10,2013-01-01 10:05:00,
2013-01-01 05:20:00,40.0,30.0,29.87,WSW,239,2.0,9.0,67,0.00,,,0.00,weatherlink.com 1.10,2013-01-01 10:20:00,
2013-01-01 05:35:00,39.9,30.0,29.86,WSW,242,1.0,7.0,67,0.00,,,0.00,weatherlink.com 1.10,2013-01-01 10:35:00,
2013-01-01 05:50:00,39.9,29.0,29.86,WSW,243,2.0,11.0,66,0.00,,,0.00,weatherlink.com 1.10,2013-01-01 10:50:00,
2013-01-01 06:05:00,39.8,29.0,29.86,SW,227,2.0,7.0,66,0.00,,,0.00,weatherlink.com 1.10,2013-01-01 11:05:00,
2013-01-01 06:20:00,39.5,29.0,29.86,West,260,3.0,5.0,66,0.00,,,0.00,weatherlink.com 1.10,2013-01-01 11:20:00,
2013-01-01 06:35:00,39.3,28.0,29.87,WSW,256,5.0,6.0,65,0.00,,,0.00,weatherlink.com 1.10,2013-01-01 11:35:00,
2013-01-01 06:50:00,39.2,28.0,29.88,West,259,1.0,13.0,65,0.00,,,0.00,weatherlink.com 1.10,2013-01-01 11:50:00,
2013-01-01 07:05:00,39.2,28.0,29.88,SW,235,3.0,11.0,65,0.00,,,0.00,weatherlink.com 1.10,2013-01-01 12:05:00,
2013-01-01 07:20:00,39.2,29.0,29.88,WSW,248,4.0,6.0,66,0.00,,,0.00,weatherlink.com 1.10,2013-01-01 12:20:00,
2013-01-01 07:35:00,39.2,29.0,29.88,WSW,240,3.0,11.0,67,0.00,,,0.00,weatherlink.com 1.10,2013-01-01 12:35:00,
2013-01-01 07:50:00,39.2,29.0,29.88,West,278,5.0,8.0,67,0.00,,,0.00,weatherlink.com 1.10,2013-01-01 12:50:00,
2013-01-01 08:06:00,39.2,29.0,29.88,West,262,4.0,8.0,68,0.00,,,0.00,weatherlink.com 1.10,2013-01-01 13:06:00,
2013-01-01 08:21:00,39.4,30.0,29.87,WNW,291,3.0,10.0,68,0.00,,,0.00,weatherlink.com 1.10,2013-01-01 13:21:00,
2013-01-01 08:36:00,39.5,30.0,29.88,WNW,283,5.0,9.0,68,0.00,,,0.00,weatherlink.com 1.10,2013-01-01 13:36:00,
2013-01-01 08:51:00,39.7,29.0,29.87,WNW,285,1.0,7.0,67,0.00,,,0.00,weatherlink.com 1.10,2013-01-01 13:51:00,
2013-01-01 09:06:00,40.1,29.0,29.87,WSW,243,1.0,9.0,66,0.00,,,0.00,weatherlink.com 1.10,2013-01-01 14:06:00,
2013-01-01 09:21:00,40.1,29.0,29.89,WSW,238,1.0,7.0,66,0.00,,,0.00,weatherlink.com 1.10,2013-01-01 14:21:00,
2013-01-01 09:36:00,40.2,30.0,29.89,WSW,248,2.0,8.0,66,0.00,,,0.00,weatherlink.com 1.10,2013-01-01 14:36:00,
2013-01-01 09:51:00,40.3,30.0,29.89,SW,231,0.0,7.0,66,0.00,,,0.00,weatherlink.com 1.10,2013-01-01 14:51:00,
2013-01-01 10:06:00,40.6,30.0,29.89,WSW,257,1.0,9.0,65,0.00,,,0.00,weatherlink.com 1.10,2013-01-01 15:06:00,
2013-01-01 10:21:00,40.8,29.0,29.89,WSW,243,2.0,7.0,64,0.00,,,0.00,weatherlink.com 1.10,2013-01-01 15:21:00,
2013-01-01 10:36:00,41.0,30.0,29.88,WSW,240,4.0,10.0,64,0.00,,,0.00,weatherlink.com 1.10,2013-01-01 15:36:00,
2013-01-01 10:51:00,40.9,29.0,29.88,WSW,249,2.0,12.0,63,0.00,,,0.00,weatherlink.com 1.10,2013-01-01 15:51:00,
2013-01-01 11:06:00,40.7,29.0,29.87,West,267,3.0,9.0,64,0.00,,,0.00,weatherlink.com 1.10,2013-01-01 16:06:00,
2013-01-01 11:21:00,40.6,29.0,29.87,WNW,289,3.0,9.0,64,0.00,,,0.00,weatherlink.com 1.10,2013-01-01 16:21:00,
2013-01-01 11:36:00,40.5,29.0,29.86,West,263,3.0,12.0,64,0.00,,,0.00,weatherlink.com 1.10,2013-01-01 16:36:00,
2013-01-01 11:51:00,40.4,29.0,29.85,WNW,298,4.0,7.0,64,0.00,,,0.00,weatherlink.com 1.10,2013-01-01 16:51:00,
2013-01-01 12:06:00,40.2,29.0,29.85,WNW,283,1.0,12.0,65,0.00,,,0.00,weatherlink.com 1.10,2013-01-01 17:06:00,
2013-01-01 12:21:00,40.0,29.0,29.84,West,277,3.0,12.0,65,0.00,,,0.00,weatherlink.com 1.10,2013-01-01 17:21:00,
2013-01-01 12:36:00,38.7,30.0,29.85,WSW,246,2.0,7.0,71,0.00,,,0.00,weatherlink.com 1.10,2013-01-01 17:36:00,
2013-01-01 12:51:00,37.9,30.0,29.85,NE,51,2.0,11.0,73,0.00,,,0.00,weatherlink.com 1.10,2013-01-01 17:51:00,
2013-01-01 13:06:00,37.6,29.0,29.85,NW,311,2.0,8.0,72,0.00,,,0.00,weatherlink.com 1.10,2013-01-01 18:06:00,
2013-01-01 13:21:00,37.5,29.0,29.84,WSW,256,1.0,7.0,70,0.00,,,0.00,weatherlink.com 1.10,2013-01-01 18:21:00,
2013-01-01 13:36:00,37.5,28.0,29.84,WNW,300,2.0,8.0,68,0.00,,,0.00,weatherlink.com 1.10,2013-01-01 18:36:00,
2013-01-01 13:51:00,37.9,28.0,29.84,SW,217,2.0,6.0,68,0.00,,,0.00,weatherlink.com 1.10,2013-01-01 18:51:00,
2013-01-01 14:06:00,38.2,27.0,29.82,WNW,287,5.0,7.0,64,0.00,,,0.00,weatherlink.com 1.10,2013-01-01 19:06:00,
2013-01-01 14:21:00,38.3,27.0,29.83,West,271,3.0,8.0,63,0.00,,,0.00,weatherlink.com 1.10,2013-01-01 19:21:00,
2013-01-01 14:36:00,38.3,27.0,29.84,WSW,255,2.0,7.0,63,0.00,,,0.00,weatherlink.com 1.10,2013-01-01 19:36:00,
2013-01-01 14:51:00,38.3,27.0,29.84,West,277,0.0,7.0,63,0.00,,,0.00,weatherlink.com 1.10,2013-01-01 19:51:00,
2013-01-01 15:06:00,38.4,27.0,29.83,WSW,249,0.0,7.0,63,0.00,,,0.00,weatherlink.com 1.10,2013-01-01 20:06:00,
2013-01-01 15:21:00,38.5,26.0,29.84,SSW,193,1.0,8.0,62,0.00,,,0.00,weatherlink.com 1.10,2013-01-01 20:21:00,
2013-01-01 15:36:00,38.4,26.0,29.84,SSW,200,3.0,4.0,62,0.00,,,0.00,weatherlink.com 1.10,2013-01-01 20:36:00,
2013-01-01 15:52:00,38.4,25.0,29.86,WSW,250,3.0,8.0,60,0.00,,,0.00,weatherlink.com 1.10,2013-01-01 20:52:00,
2013-01-01 16:07:00,38.3,25.0,29.87,WSW,253,2.0,5.0,59,0.00,,,0.00,weatherlink.com 1.10,2013-01-01 21:07:00,
2013-01-01 16:22:00,38.2,22.0,29.87,West,264,2.0,11.0,53,0.00,,,0.00,weatherlink.com 1.10,2013-01-01 21:22:00,
2013-01-01 16:37:00,37.9,22.0,29.87,WNW,285,1.0,8.0,54,0.00,,,0.00,weatherlink.com 1.10,2013-01-01 21:37:00,
2013-01-01 16:52:00,37.3,22.0,29.87,NW,304,2.0,5.0,55,0.00,,,0.00,weatherlink.com 1.10,2013-01-01 21:52:00,
2013-01-01 17:07:00,36.7,22.0,29.88,SW,236,0.0,8.0,56,0.00,,,0.00,weatherlink.com 1.10,2013-01-01 22:07:00,
2013-01-01 17:22:00,36.2,22.0,29.89,West,276,1.0,10.0,56,0.00,,,0.00,weatherlink.com 1.10,2013-01-01 22:22:00,
2013-01-01 17:37:00,36.0,21.0,29.89,ENE,77,4.0,11.0,55,0.00,,,0.00,weatherlink.com 1.10,2013-01-01 22:37:00,
2013-01-01 17:52:00,35.7,21.0,29.90,WNW,294,1.0,8.0,55,0.00,,,0.00,weatherlink.com 1.10,2013-01-01 22:52:00,
2013-01-01 18:07:00,35.5,21.0,29.89,WSW,253,3.0,5.0,55,0.00,,,0.00,weatherlink.com 1.10,2013-01-01 23:07:00,
2013-01-01 18:22:00,34.6,19.0,29.90,ENE,63,11.0,12.0,53,0.00,,,0.00,weatherlink.com 1.10,2013-01-01 23:22:00,
2013-01-01 18:37:00,34.1,18.0,29.92,WSW,250,0.0,8.0,52,0.00,,,0.00,weatherlink.com 1.10,2013-01-01 23:37:00,
2013-01-01 18:52:00,33.7,18.0,29.93,NW,312,0.0,7.0,53,0.00,,,0.00,weatherlink.com 1.10,2013-01-01 23:52:00,
2013-01-01 19:07:00,33.3,17.0,29.93,NW,316,2.0,10.0,52,0.00,,,0.00,weatherlink.com 1.10,2013-01-02 00:07:00,
2013-01-01 19:22:00,33.1,17.0,29.94,WSW,252,2.0,16.0,51,0.00,,,0.00,weatherlink.com 1.10,2013-01-02 00:22:00,
2013-01-01 19:37:00,32.7,16.0,29.93,NW,307,2.0,13.0,51,0.00,,,0.00,weatherlink.com 1.10,2013-01-02 00:37:00,
2013-01-01 19:52:00,32.4,16.0,29.94,SE,131,0.0,9.0,52,0.00,,,0.00,weatherlink.com 1.10,2013-01-02 00:52:00,
2013-01-01 20:07:00,32.1,17.0,29.94,North,356,1.0,8.0,53,0.00,,,0.00,weatherlink.com 1.10,2013-01-02 01:07:00,
2013-01-01 20:22:00,31.8,17.0,29.95,West,263,1.0,9.0,54,0.00,,,0.00,weatherlink.com 1.10,2013-01-02 01:22:00,
2013-01-01 20:37:00,31.4,17.0,29.95,NNE,16,2.0,5.0,56,0.00,,,0.00,weatherlink.com 1.10,2013-01-02 01:37:00,
2013-01-01 20:52:00,31.2,17.0,29.96,NNW,338,2.0,9.0,56,0.00,,,0.00,weatherlink.com 1.10,2013-01-02 01:52:00,
2013-01-01 21:07:00,30.9,17.0,29.95,WNW,302,8.0,10.0,56,0.00,,,0.00,weatherlink.com 1.10,2013-01-02 02:07:00,
2013-01-01 21:22:00,30.5,16.0,29.96,East,88,1.0,9.0,55,0.00,,,0.00,weatherlink.com 1.10,2013-01-02 02:22:00,
2013-01-01 21:37:00,30.3,15.0,29.97,NW,305,5.0,11.0,53,0.00,,,0.00,weatherlink.com 1.10,2013-01-02 02:37:00,
2013-01-01 21:52:00,30.0,15.0,29.97,SSE,155,0.0,10.0,53,0.00,,,0.00,weatherlink.com 1.10,2013-01-02 02:52:00,
2013-01-01 22:08:00,29.7,15.0,29.98,NNW,340,2.0,6.0,55,0.00,,,0.00,weatherlink.com 1.10,2013-01-02 03:08:00,
2013-01-01 22:23:00,29.0,13.0,29.99,WNW,288,1.0,12.0,52,0.00,,,0.00,weatherlink.com 1.10,2013-01-02 03:23:00,
2013-01-01 22:38:00,28.6,13.0,30.00,NW,307,5.0,11.0,52,0.00,,,0.00,weatherlink.com 1.10,2013-01-02 03:38:00,
2013-01-01 22:53:00,28.3,13.0,29.99,WNW,285,3.0,11.0,52,0.00,,,0.00,weatherlink.com 1.10,2013-01-02 03:53:00,
2013-01-01 23:08:00,28.0,13.0,29.99,WNW,288,1.0,7.0,54,0.00,,,0.00,weatherlink.com 1.10,2013-01-02 04:08:00,
2013-01-01 23:23:00,27.5,11.0,30.00,NNW,338,4.0,10.0,50,0.00,,,0.00,weatherlink.com 1.10,2013-01-02 04:23:00,
2013-01-01 23:38:00,27.3,11.0,30.01,WSW,252,2.0,9.0,50,0.00,,,0.00,weatherlink.com 1.10,2013-01-02 04:38:00,
2013-01-01 23:53:00,26.9,10.0,29.99,WSW,256,5.0,16.0,50,0.00,,,0.00,weatherlink.com 1.10,2013-01-02 04:53:00,